Regional Weather Roundup
Issued by NWS Jackson, KY

Home | Current Version | Previous Version | Text Only | Print | Product List | Glossary On
Versions: 1 2 3 4 5 6 7 8 9 10 11 12 13 14 15 16 17 18 19 20 21 22 23 24 25 26 27 28 29 30 31 32 33 34 35 36 37 38 39 40 41 42 43 44 45 46 47 48 49 50
000
ASUS43 KJKL 080010
RWRJKL

EAST KENTUCKY HOURLY WEATHER ROUNDUP
NATIONAL WEATHER SERVICE JACKSON KY
800 PM EDT TUE JUL 07 2015

NOTE: "FAIR" INDICATES FEW OR NO CLOUDS BELOW 12,000 FEET WITH
NO SIGNIFICANT WEATHER AND/OR OBSTRUCTIONS TO VISIBILITY.

* THESE REPORTS ARE NOT UNDER NWS QUALITY CONTROL AND MAY NOT
  REPORT WEATHER SUCH AS PRECIPITATION AND FOG.

KYZ079-080-083-085-087-088-110-112-115-119-120-080100
...EASTERN KENTUCKY...

CITY           SKY/WX    TMP DP  RH WIND       PRES   REMARKS
JACKSON        CLOUDY    78  72  81 CALM      30.05R
6HR MIN TEMP:  75; 6HR MAX TEMP:  81; 6HR PCP: TRACE;

LONDON         CLOUDY    82  66  58 SW6       30.05S
6HR MIN TEMP:  82; 6HR MAX TEMP:  89;

SOMERSET*      CLOUDY    79  68  69 SW6       30.05R
MONTICELLO*    CLOUDY    80  74  82 CALM      30.07R
6HR MIN TEMP:  80; 6HR MAX TEMP:  88;

MIDDLESBORO*   CLOUDY    83  71  66 S3        30.07S
6HR MIN TEMP:  82; 6HR MAX TEMP:  87;

HARLAN APT*      N/A     81  66  61 CALM      30.09R
HAZARD APT*    CLEAR     81  72  74 CALM      30.06R
BLACK MTN*       N/A     68  68 100 W5          N/A
PIKEVILLE APT* CLOUDY    75  70  83 S6        30.06S
BIG SANDY*     CLOUDY    78  70  76 S5        30.04S
6HR MIN TEMP:  78; 6HR MAX TEMP:  85;

MOREHEAD APT*  CLOUDY    70  68  94 SE3       30.04S
$$

KYZ035-036-041-042-044-050-067-078-099-080100
...CENTRAL KENTUCKY...

CITY           SKY/WX    TMP DP  RH WIND       PRES   REMARKS
MT STERLING*   DRIZZLE   72  70  94 SW5       30.03S
FLEMING/MASON* DRIZZLE  N/A N/A N/A W5        30.02R
DANVILLE*      DRIZZLE   70  64  83 W7        30.04R
RICHMOND*      CLOUDY    79  68  69 SW7       30.02S
LEXINGTON      LGT RAIN  71  68  90 SW12      30.02R FOG
6HR MIN TEMP:  68; 6HR MAX TEMP:  80; 6HR PCP:  0.50;

FRANKFORT      CLOUDY    73  69  87 SW7       30.00S
6HR MIN TEMP:  70; 6HR MAX TEMP:  77; 6HR PCP:  0.17;

$$

KYZ091>093-OHZ055-061-077-WVZ005-015-034-035-042-080100
...SOUTHERN OHIO/WEST VIRGINIA...

CITY           SKY/WX    TMP DP  RH WIND       PRES   REMARKS
COVINGTON      LGT RAIN  73  70  90 SW10G17   29.97S FOG
COLUMBUS       RAIN      73  71  93 SW13      29.93S
DAYTON         RAIN      73  70  90 SW9       29.95F FOG
WILMINGTON     LGT RAIN  73  68  84 SW13      29.96R
HUNTINGTON     CLOUDY    70  69  97 CALM      30.01S
CHARLESTON     CLOUDY    78  72  81 CALM      30.01F
PINEVILLE*     CLOUDY    71  68  90 MISG      30.15S
BECKLEY        MOCLDY    72  61  68 S5        30.14S
BLUEFIELD      MOCLDY    74  64  71 SW5       30.17S
$$

VAZ002-007-008-TNZ017-027-036-066-071-080100
...SOUTHWEST VIRGINIA/EAST TENNESSEE...

CITY           SKY/WX    TMP DP  RH WIND       PRES   REMARKS
WISE*          CLOUDY    75  64  69 S7        30.17S
JONESVILLE*      N/A    N/A N/A N/A MISG        N/A
ABINGDON*      MOCLDY    80  67  64 W3        30.15S
BRISTOL        MOCLDY    82  66  58 SW6       30.11R
KNOXVILLE      CLOUDY    84  69  60 SW10      30.06S
OAK RIDGE      CLOUDY    85  68  56 VRB6      30.07S
CROSSVILLE     PTSUNNY   80  67  64 SW5       30.12S
NASHVILLE      TSTM      73  70  90 W3G18     30.05R
$$

...KEY TO REMARKS...
VSB - VISIBILITY IN MILES
WCI - WIND CHILL INDEX
HX  - HEAT INDEX

$$



USA.gov is the U.S. government's official web portal to all federal, state and local government web resources and services.